TIME,DELAY(SENSOR),PRES,T(CTD),SAL,OXYGEN,RAWTEMP,T(OPTODE),TCPHASE,FLUOR,BETA(BETA700),BETA(BETA412),BETA(BETA440),CDOM,C(CSC),ED(ED411.90),ED(ED443.80),ED(ED489.40),ED(ED554.70),LU(LU412.20),LU(LU443.80),LU(LU489.40),LU(LU555.00),COMP,TILTX,TILTX(TILTY),CHECK
1340898381,5805,496.7300109863281000,16.2268009185791000,36.2239990234375000,215.6358032226562500,228.2512054443359400,16.2226295471191400,33.3022308349609400,50,107,99,80,70,15408,2147478317,2147772251,2147564489,2147800722,2147311597,2147471588,2147715026,2148247286,61,7,13,56499
1340898496,5806,486.1099853515625000,16.4188995361328120,36.2610015869140600,218.7238006591797000,221.9696960449218800,16.4136104583740230,33.0478286743164060,50,106,99,79,70,15397,2147479972,2147768859,2147562057,2147800740,2147313746,2147474788,2147712640,2148246546,434,7,13,64271
1340898611,5800,475.7200012207031000,16.5645999908447270,36.2900009155273440,221.1605072021484400,216.8224029541015600,16.5701103210449220,32.8472404479980500,50,106,101,80,68,15407,2147478052,2147765988,2147559021,2147800978,2147313920,2147473033,2147713307,2148248786,327,7,13,46576
1340898740,5801,464.2799987792969000,16.7276000976562500,36.3227005004882800,223.6098937988281200,211.6692962646484400,16.7268009185791000,32.6477584838867200,50,106,100,79,70,15410,2147479305,2147770797,2147562861,2147802633,2147311149,2147478171,2147715099,2148243611,382,7,13,56066
1340898867,5805,453.3399963378906000,16.8463993072509770,36.3459014892578100,225.0950012207031200,207.9010009765625000,16.8413906097412100,32.5189704895019500,50,106,99,79,68,15411,2147479350,2147769654,2147563712,2147799707,2147309577,2147473938,2147715154,2148245458,804,7,12,19425
1340898996,5806,442.2600097656250000,16.9892997741699220,36.3732986450195300,227.0372009277343800,203.2669067382812500,16.9823207855224600,32.3557815551757800,50,106,101,80,68,15407,2147479405,2147770093,2147560283,2147798866,2147315712,2147475986,2147711552,2148248612,945,7,13,53599
1340899123,5806,431.3800048828125000,17.0804004669189450,36.3925018310546900,229.2494049072265600,200.1289062500000000,17.0777606964111330,32.2014007568359400,50,105,99,80,67,15407,2147483364,2147767698,2147558692,2147796534,2147314002,2147473014,2147714953,2148249974,817,7,13,48167
1340899250,5805,420.3699951171875000,17.1476993560791000,36.4058990478515600,229.9981994628906200,197.7978973388672000,17.1486701965332030,32.1320381164550800,50,106,101,81,67,15407,2147484315,2147770304,2147561316,2147798701,2147309952,2147475245,2147712274,2148246921,825,7,13,3223
1340899379,5805,409.2200012207031000,17.2499008178710940,36.4257011413574200,232.0000000000000000,194.7404022216797000,17.2416706085205080,31.9908008575439450,50,109,100,80,67,15409,2147484361,2147770368,2147558646,2147797650,2147305426,2147475181,2147711323,2148244224,709,7,13,43350
1340899506,5804,398.2999877929687500,17.3412990570068360,36.4426994323730500,232.4696044921875000,191.6446990966797000,17.3358497619628900,31.9255599975585940,50,106,100,80,67,15407,2147483593,2147768822,2147559826,2147798400,2147315227,2147473481,2147714368,2148246729,735,7,13,48986
1340899635,5802,387.2600097656250000,17.4333000183105470,36.4594993591308600,234.0021057128906200,188.5335998535156200,17.4305000305175780,31.8084907531738280,50,108,100,79,67,15408,2147485449,2147769746,2147559872,2147794706,2147308900,2147478180,2147706724,2148245266,1097,7,13,40804
1340899762,5806,376.8099975585937500,17.5121002197265620,36.4752006530761700,234.6808929443359400,185.9884033203125000,17.5079498291015620,31.7407207489013670,50,107,99,81,67,15407,2147487350,2147763666,2147558811,2147792859,2147309321,2147476461,2147709220,2148245513,468,7,13,20247
1340899901,5805,365.7799987792969000,17.6086997985839840,36.4934005737304700,235.7667999267578000,182.4380035400390600,17.6159992218017580,31.6401290893554700,50,107,100,80,67,15409,2147484434,2147765165,2147556790,2147796260,2147306925,2147478902,2147710692,2148242422,543,7,13,5896
1340900054,5803,354.4599914550781000,17.7084999084472660,36.5106010437011700,236.5216979980468800,179.5207061767578000,17.7047805786132800,31.5645503997802730,50,107,99,82,68,15407,2147486363,2147765083,2147561453,2147796452,2147312658,2147478464,2147704822,2148243785,1107,7,13,41948
1340900205,5803,343.5599975585937500,17.7647991180419920,36.5200004577636700,237.3813934326172000,177.5550994873047000,17.7646102905273440,31.4967994689941400,50,107,100,79,68,15405,2147487469,2147764928,2147556717,2147792768,2147309476,2147476736,2147710134,2148242121,1181,7,13,49307
1340900340,5803,332.2200012207031000,17.8421001434326170,36.5331993103027340,237.8379974365234400,175.0039978027343800,17.8422698974609380,31.4408302307128900,50,108,99,80,66,15408,2147482916,2147766116,2147557732,2147794002,2147303424,2147475830,2147708681,2148239643,966,7,12,45764
1340900455,5803,321.2300109863281000,17.9081001281738280,36.5447006225585940,238.4877929687500000,172.9087066650390600,17.9060592651367200,31.3817195892334000,49,106,99,79,67,15409,2147487104,2147770011,2147558153,2147793920,2147305572,2147475821,2147706587,2148238838,1072,7,13,29769
1340900572,5804,309.9899902343750000,17.9596996307373050,36.5535011291503900,239.3307037353515600,171.2621002197265600,17.9561996459960940,31.3199005126953120,50,107,99,80,65,15410,2147488164,2147767533,2147555053,2147793206,2147308470,2147479442,2147705929,2148240018,785,7,13,62694
1340900687,5804,298.8599853515625000,18.0067005157470700,36.5601005554199200,238.6278076171875000,169.6419982910156200,18.0055294036865230,31.3312606811523440,49,108,98,79,67,15405,2147486436,2147762797,2147558189,2147794998,2147302473,2147477449,2147706276,2148240630,947,7,13,3567
1340900802,5803,287.6600036621094000,18.0634994506835940,36.5653991699218750,238.2272033691406200,167.8419952392578000,18.0603504180908200,31.3260993957519530,50,109,100,80,67,15401,2147488896,2147765302,2147557220,2147792466,2147310281,2147472822,2147707008,2148242176,637,8,12,28014
1340900907,5801,277.3200073242187500,18.1051006317138670,36.5710983276367200,237.2382965087890600,166.4248962402343800,18.1035003662109380,31.3538398742675780,50,110,100,79,66,15401,2147485760,2147764662,2147561353,2147792877,2147311844,2147476754,2147709997,2148243328,792,8,12,47909
1340901022,5803,265.8999938964844000,18.1494007110595700,36.5764999389648440,236.6253051757812500,164.9582061767578000,18.1481800079345700,31.3633708953857420,50,109,99,80,66,15399,2147484525,2147767881,2147562413,2147793280,2147304585,2147474605,2147710683,2148242715,897,8,12,54483
1340901137,5804,254.3000030517578000,18.2196998596191400,36.5828018188476560,235.8529968261718800,162.7563934326172000,18.2152404785156250,31.3707695007324220,50,110,101,80,68,15400,2147484955,2147764809,2147560036,2147793124,2147302774,2147479085,2147708160,2148242377,1072,7,12,40843
1340901254,5802,242.6199951171875000,18.2798995971679700,36.5878982543945300,234.8392028808593800,160.6287994384765600,18.2800598144531250,31.3907909393310550,50,110,100,79,67,15393,2147488448,2147766281,2147566208,2147789010,2147305161,2147474880,2147710765,2148241700,1570,7,12,41067
1340901357,5802,232.2700042724609400,18.3469009399414060,36.5928993225097660,233.3209991455078000,158.5238037109375000,18.3442001342773440,31.4358806610107420,50,111,101,81,68,15396,2147489664,2147768530,2147568274,2147791588,2147309869,2147478107,2147713051,2148239862,1594,7,12,24010
1340901472,5804,220.8200073242187500,18.3955993652343750,36.5969009399414060,232.1618041992187500,156.7586975097656200,18.3979797363281250,31.4684104919433600,50,111,100,81,66,15389,2147489444,2147769179,2147571392,2147791387,2147306066,2147478875,2147712155,2148241773,2089,7,12,10397
1340901589,5803,209.4900054931640600,18.5354003906250000,36.6022987365722660,229.8497009277343800,152.3134002685547000,18.5334701538085940,31.5217990875244140,50,111,102,81,66,15389,2147491702,2147771520,2147575844,2147791277,2147302866,2147481600,2147711753,2148243565,2062,7,13,5532
1340901716,5803,197.6900024414062500,18.6847991943359380,36.6096992492675800,228.5245056152343800,147.3524017333984400,18.6847095489501950,31.5206699371337900,50,113,101,81,66,15389,2147493156,2147770998,2147577773,2147794450,2147308059,2147486070,2147720164,2148242413,2535,7,12,45549
1340901771,5803,192.7299957275390600,18.8160991668701170,36.6058006286621100,229.2295074462890600,142.9145050048828000,18.8200607299804700,31.4265193939209000,50,113,101,82,68,15387,2147487606,2147776182,2147585088,2147793947,2147314806,2147485604,2147716754,2148241334,2602,8,12,23839
1340901826,5800,187.9299926757812500,18.8892993927001950,36.5946006774902340,230.6681976318359400,139.9082946777343800,18.9117603302001950,31.3156204223632800,50,112,101,80,66,15387,2147489344,2147775808,2147590198,2147790016,2147299977,2147486080,2147725001,2148240356,2424,7,12,14100
1340901901,5802,181.9799957275390600,19.0443000793457030,36.5941009521484400,236.4647979736328000,135.2677001953125000,19.0533599853515620,30.9755592346191400,50,113,101,80,66,15388,2147492681,2147779702,2147596004,2147790729,2147309641,2147488749,2147728457,2148239597,2925,6,12,40078
1340901956,5805,178.1600036621093800,19.1777992248535160,36.5990982055664060,241.0404968261718800,131.5621032714843800,19.1664695739746100,30.7127704620361330,50,114,101,81,64,15386,2147493138,2147781942,2147602404,2147791561,2147310162,2147492854,2147733275,2148242148,2381,7,13,40392
1340902023,5803,173.7899932861328000,19.2504997253417970,36.5984992980957000,247.1472015380859400,128.9411010742187500,19.2465000152587900,30.4006099700927730,50,111,100,81,63,15390,2147493421,2147784411,2147609042,2147787675,2147312740,2147492269,2147733888,2148238308,2105,7,12,23298
1340902078,5804,170.2299957275390600,19.2880992889404300,36.5999984741210940,252.0032958984375000,127.8153991699218800,19.2808704376220700,30.1708106994628900,50,112,100,81,63,15385,2147495085,2147787236,2147616027,2147791259,2147315072,2147494500,2147741110,2148240667,1920,7,12,1824
1340902145,5805,165.8800048828125000,19.2915992736816400,36.5962982177734400,255.3688049316406200,127.4758987426757800,19.2912406921386720,30.0204391479492200,50,114,101,81,64,15389,2147501348,2147789220,2147621778,2147788882,2147309860,2147496237,2147745801,2148243346,2300,7,12,26288
1340902222,5805,161.3899993896484400,19.2595005035400400,36.5768013000488300,258.0433959960937500,128.5702972412109400,19.2578201293945300,29.9198799133300780,53,116,102,81,61,15379,2147500589,2147791314,2147624996,2147788406,2147316809,2147496502,2147749485,2148242249,2704,7,13,8970
1340902301,5805,157.6499938964843800,19.2586994171142580,36.5763015747070300,259.0732116699219000,128.6242980957031200,19.2561702728271500,29.8769302368164060,53,114,101,82,63,15384,2147497901,2147795757,2147633408,2147791021,2147312694,2147503680,2147747986,2148242386,2959,7,13,47045
1340902392,5801,153.4100036621093800,19.2716007232666000,36.5802001953125000,259.4242858886719000,128.2400970458984400,19.2679004669189450,29.8571796417236330,54,116,101,82,63,15378,2147502016,2147799853,2147638756,2147788580,2147314267,2147504941,2147753078,2148239872,3468,7,13,45169
1340902471,5802,149.7500000000000000,19.3045005798339840,36.5878982543945300,259.2735900878906000,127.2135009765625000,19.2992496490478500,29.8504009246826170,57,118,103,82,63,15378,2147504722,2147799177,2147644150,2147788178,2147304923,2147508626,2147758244,2148243200,222,7,12,28765
1340902564,5803,145.4199981689453000,19.3568000793457030,36.6007995605468750,259.5794067382812500,125.4865036010742200,19.3519992828369140,29.8149890899658200,56,117,101,82,64,15379,2147502774,2147809773,2147657170,2147787072,2147308214,2147512054,2147771611,2148241371,205,7,12,48266
1340902643,5803,141.7100067138672000,19.3687000274658200,36.6054000854492200,260.1106872558594000,125.0514984130859400,19.3652896881103500,29.7871093750000000,56,117,102,81,64,15378,2147506075,2147815012,2147668324,2147788818,2147318281,2147511890,2147774820,2148242550,211,7,12,28042
1340902734,5805,137.4299926757812500,19.3680000305175780,36.6052017211914060,260.1936035156250000,125.0401000976562500,19.3656291961669920,29.7833003997802730,57,117,101,82,64,15375,2147506523,2147805540,2147654784,2147788352,2147313947,2147515510,2147765238,2148239140,120,7,13,58695
1340902813,5804,133.7599945068359400,19.3495998382568360,36.5942993164062500,259.9426879882812500,125.5944976806640600,19.3486995697021500,29.8011798858642580,65,120,103,83,63,15369,2147507968,2147807040,2147659035,2147789028,2147317933,2147515611,2147766884,2148242121,308,7,12,63083
1340902906,5804,129.5000000000000000,19.3493003845214840,36.5928993225097660,259.8500061035156000,125.6376037597656200,19.3473892211914060,29.8056297302246100,68,122,103,84,63,15361,2147502619,2147802843,2147634331,2147790144,2147314898,2147504045,2147752109,2148241828,211,7,12,41208
1340902997,5805,125.4800033569336000,19.3582992553710940,36.5913009643554700,259.8111877441406000,125.4026031494140600,19.3545608520507800,29.8041496276855470,75,123,101,82,63,15357,2147510253,2147813312,2147664795,2147792411,2147313051,2147518372,2147768475,2148241316,74,7,12,39222
1340903088,5805,121.4199981689453100,19.3712005615234380,36.5918998718261700,260.1661987304687500,124.8938980102539000,19.3701000213623050,29.7827606201171880,85,128,102,84,64,15344,2147520155,2147839643,2147716160,2147790454,2147321892,2147533485,2147793298,2148241453,216,7,12,55289
1340903167,5801,117.7399978637695300,19.3766002655029300,36.5922012329101560,260.7448120117187500,124.7704010009765600,19.3738708496093750,29.7567901611328120,88,130,103,82,63,15343,2147529142,2147867940,2147767817,2147789366,2147319131,2147546971,2147822683,2148245997,368,7,12,18034
1340903260,5806,113.1100006103515600,19.3794994354248050,36.5873985290527340,260.4377136230469000,124.7104034423828100,19.3756999969482420,29.7687492370605470,103,131,104,84,65,15321,2147540297,2147892004,2147808868,2147791314,2147334308,2147559433,2147842038,2148242706,69,7,12,35426
1340903327,5802,109.6200027465820300,19.3819007873535160,36.5878982543945300,260.4863891601562500,124.5762023925781200,19.3798007965087900,29.7649803161621100,104,131,104,85,65,15321,2147546697,2147911762,2147842861,2147789952,2147336365,2147569554,2147853632,2148245028,3414,7,13,64725
1340903406,5804,105.3099975585937500,19.3952007293701170,36.5844001770019500,261.3182983398437500,124.1585998535156200,19.3925590515136720,29.7248592376709000,111,130,102,82,65,15314,2147565997,2147950098,2147901284,2147793197,2147342317,2147582838,2147877741,2148249947,3268,7,12,50104
1340903473,5802,101.5299987792968800,19.4118003845214840,36.5852012634277340,262.3551025390625000,123.6588973999023400,19.4078292846679700,29.6751194000244140,112,132,105,84,65,15312,2147592640,2148012480,2147999524,2147793572,2147352630,2147605028,2147922340,2148255003,3226,7,13,52482
1340903530,5803,98.2900009155273400,19.4235992431640620,36.5850982666015600,263.3693847656250000,123.2966003417968800,19.4188899993896500,29.6282596588134770,109,131,104,84,64,15315,2147620068,2148058697,2148062820,2147797211,2147364525,2147624045,2147945700,2148253696,3030,7,12,14781
1340903585,5804,95.0699996948242200,19.4312992095947270,36.5834007263183600,264.1803894042969000,122.9501037597656200,19.4294795989990230,29.5903301239013670,113,132,103,82,65,15311,2147644836,2148109970,2148137334,2147799680,2147377234,2147641334,2147976457,2148257929,3082,7,13,3588
1340903640,5803,91.7699966430664000,19.4410991668701170,36.5839996337890600,264.5466918945312500,122.2125015258789000,19.4520092010498050,29.5656108856201170,114,133,103,84,66,15307,2147671305,2148148150,2148190427,2147803968,2147375460,2147659373,2147993536,2148260845,3079,7,13,47798
1340903695,5803,88.4700012207031200,19.4696998596191400,36.5845985412597660,265.5292053222656000,121.6688003540039000,19.4686298370361330,29.5182399749755860,108,134,104,82,65,15307,2147652187,2148095076,2148084800,2147801974,2147374025,2147630354,2147942171,2148256667,2936,7,12,32610
1340903750,5804,85.3399963378906200,19.4934005737304700,36.5848999023437500,266.5028076171875000,120.8917999267578100,19.4923706054687500,29.4685096740722660,109,133,105,82,66,15302,2147698514,2148172772,2148189860,2147802523,2147390601,2147662710,2147988864,2148257819,2500,7,13,56140
1340903805,5804,82.3199996948242200,19.5393009185791000,36.5910987854003900,268.0560913085937500,119.5804977416992200,19.5324401855468750,29.3884906768798830,100,134,104,84,67,15304,2147776557,2148308955,2148385426,2147812498,2147421293,2147720283,2148074413,2148270921,2323,7,13,34201
1340903862,5804,79.3899993896484400,19.5744991302490230,36.5936012268066400,269.9902954101562500,118.3768997192382800,19.5692291259765620,29.2949104309082030,104,132,105,85,65,15298,2147869275,2148475245,2148613970,2147820169,2147453888,2147792877,2148174811,2148280265,2101,7,13,9048
1340903917,5800,76.7500000000000000,19.6263999938964840,36.5938987731933600,271.9739074707031000,116.7695007324218800,19.6183605194091800,29.1950092315673830,101,135,106,84,65,15289,2147950299,2148586870,2148744777,2147828480,2147484004,2147840612,2148236809,2148287021,1926,7,13,44109
1340903972,5804,74.3799972534179700,19.6636009216308600,36.5942001342773440,273.5151062011719000,115.6624984741211000,19.6522006988525400,29.1198101043701170,99,139,107,86,63,15278,2148068708,2148775844,2148992585,2147840795,2147521755,2147926829,2148341915,2148300096,2133,7,13,33885
1340904027,5800,72.2099990844726600,19.6926002502441400,36.5947990417480500,274.8395080566406000,114.6318969726562500,19.6837100982666000,29.0546302795410160,100,141,106,86,61,15272,2148162020,2148917522,2149167588,2147854912,2147566162,2147989019,2148423844,2148308489,2764,7,13,17854
1340904082,5804,70.2500000000000000,19.7495002746582030,36.5947990417480500,276.2369995117187500,112.7479019165039000,19.7413101196289060,28.9758796691894530,98,141,107,86,63,15261,2148229851,2148999972,2149244662,2147858267,2147596992,2148024804,2148458651,2148312941,3237,7,13,2130
1340904137,5802,68.5599975585937500,19.8110008239746100,36.5918006896972660,277.3552856445312500,110.8749008178711000,19.7985992431640620,28.9085597991943360,98,144,107,86,63,15256,2148300315,2149089572,2149350317,2147869979,2147627145,2148073371,2148518921,2148322578,3546,7,13,50659
1340904212,5806,66.3099975585937500,19.8990001678466800,36.5873985290527340,278.6393127441406000,107.6232986450195300,19.8980598449707030,28.8178596496582030,96,142,107,87,63,15247,2148341403,2149111936,2149326034,2147873536,2147646628,2148090633,2148512969,2148321289,12,8,12,30873
1340904267,5806,64.3499984741211000,19.9729995727539060,36.5901985168457000,279.8815917968750000,105.1271972656250000,19.9744491577148440,28.7387504577636720,92,148,108,86,63,15239,2148406701,2149158820,2149350985,2147880722,2147680228,2148123584,2148533677,2148326317,27,7,12,12359
1340904322,5801,62.5600013732910160,20.0741996765136720,36.5951004028320300,280.6018981933594000,101.9129028320312500,20.0728302001953120,28.6708297729492200,94,142,108,87,62,15231,2148485065,2149243931,2149412845,2147887680,2147716004,2148165366,2148566774,2148333019,3108,7,13,39633
1340904377,5804,60.8400001525878900,20.2155990600585940,36.5965995788574200,281.1213989257812500,97.7329864501953100,20.2008209228515620,28.5986595153808600,92,144,109,87,62,15237,2148559140,2149306157,2149461485,2147897517,2147757065,2148204370,2148595602,2148337938,2351,7,13,26180
1340904432,5804,59.1899986267089840,20.2845993041992200,36.5998992919921900,281.6453857421875000,95.4623413085937500,20.2703704833984380,28.5503005981445300,91,143,110,88,62,15225,2148653074,2149410779,2149559533,2147910829,2147806564,2148270500,2148652690,2148348187,2141,7,13,46505
1340904522,5800,56.0400009155273440,20.5415000915527340,36.6058998107910160,281.1040954589844000,86.8709793090820300,20.5337009429931640,28.4639205932617200,91,142,108,87,60,15221,2148875008,2149650048,2149803657,2147942336,2147932882,2148421257,2148790043,2148365970,2045,6,12,50589
1340904664,5805,51.4099998474121100,20.8013000488281250,36.6031990051269500,280.2265930175781000,78.4990386962890600,20.7905597686767580,28.3932704925537100,88,141,108,86,59,15219,2149132882,2149898715,2150024804,2147985609,2148094857,2148605257,2148937280,2148388964,881,7,13,42827
1340904697,5802,50.3199996948242200,20.8852996826171880,36.6024017333984400,279.6658020019531000,75.9009933471679700,20.8703308105468750,28.3824005126953120,85,141,109,87,61,15217,2149217554,2149980534,2150099163,2148002706,2148151296,2148666093,2148983762,2148393965,661,7,13,3969
1340904754,5806,48.8199996948242200,21.0116996765136720,36.6007995605468750,278.7990112304687500,71.6396789550781200,21.0012092590332030,28.3627605438232420,90,143,110,86,61,15212,2149345938,2150104283,2150227474,2148023524,2148242843,2148763382,2149073682,2148408338,152,7,12,31210
1340904833,5805,46.8300018310546900,21.0942001342773440,36.5934982299804700,277.9617004394531000,68.6182479858398400,21.0940608978271500,28.3574409484863280,84,138,109,87,59,15214,2149584859,2150347181,2150460800,2148066029,2148406701,2148945920,2149220516,2148432585,3417,7,13,22320
1340904890,5805,44.5400009155273440,21.1861000061035160,36.5866012573242200,277.4212036132812500,65.8461227416992200,21.1792793273925780,28.3437690734863280,83,143,110,88,61,15207,2149838592,2150583954,2150694390,2148126208,2148592027,2149135488,2149375552,2148461476,3568,7,12,6104
1340904935,5802,42.5600013732910160,21.2136001586914060,36.5858001708984400,276.9382019042969000,64.5888366699218800,21.2179393768310550,28.3468704223632800,82,141,108,86,60,15212,2149956653,2150667858,2150758948,2148155830,2148699693,2149234852,2149442093,2148473974,2927,6,13,7016
1340904980,5804,40.3899993896484400,21.3789997100830080,36.5736007690429700,276.1347045898437500,59.6009407043457000,21.3713798522949220,28.3161106109619140,85,140,109,88,61,15204,2149762742,2150385462,2150426724,2148140461,2148628205,2149107766,2149292498,2148461348,2567,7,13,4389
1340905013,5804,38.8300018310546900,21.4284992218017580,36.5811996459960940,276.2929077148437500,58.0644607543945300,21.4186706542968750,28.2910594940185550,81,142,108,87,60,15211,2150141705,2150784329,2150854262,2148225819,2148876178,2149378212,2149544594,2148502546,2377,7,13,4473
1340905058,5803,36.7900009155273440,21.5370006561279300,36.5931015014648440,276.1596069335937500,54.5697708129882800,21.5262603759765620,28.2529907226562500,81,142,108,87,61,15217,2150141266,2150732489,2150770148,2148252809,2148908617,2149391460,2149526034,2148507748,2377,7,12,19487
1340905106,5804,34.5600013732910160,21.7066001892089840,36.6157989501953100,276.7579040527344000,49.4578590393066400,21.6837406158447270,28.1671390533447270,81,142,109,87,60,15215,2150155949,2150692306,2150716480,2148283355,2148962212,2149415149,2149534089,2148518290,2253,7,12,18167
1340905151,5804,32.7500000000000000,21.8185997009277340,36.6058998107910160,277.2612915039062500,45.7763099670410160,21.7972393035888670,28.1024894714355470,84,143,108,87,59,15207,2150186934,2150683730,2150685229,2148318162,2149010934,2149434432,2149531081,2148527716,1603,7,11,60648
1340905208,5804,30.9400005340576170,21.8759994506835940,36.5898017883300800,276.9631958007812500,43.5028114318847660,21.8673496246337900,28.0860404968261720,86,139,107,88,59,15207,2150456475,2150950354,2150963026,2148401901,2149206272,2149627666,2149698733,2148564205,1323,8,13,58705
1340905444,5803,28.8099994659423830,22.0741996765136720,36.5264015197753900,274.2262878417969000,37.2282295227050800,22.0609893798828120,28.1144599914550780,84,144,109,87,59,15195,2150711945,2151124873,2151115236,2148514624,2149474697,2149859565,2149857728,2148607606,185,7,13,41047
1340905513,5802,26.5699996948242200,22.5655002593994140,36.4967994689941400,269.0331115722656000,15.6270503997802730,22.7291297912597660,28.0521507263183600,92,147,110,89,59,15176,2151210066,2151602678,2151592758,2148670601,2149882560,2150248841,2150201810,2148682185,838,6,13,28553
